Wind_Speed
9 7 7 5 4 3 1 0 2 3 3 4 5 6 6 3 1 0 1 3 4 5 8 10 10 10 9 9 11 12 12 13 13 13 13 11 10 11 11 11 11 11 11 10 10 9 8 9 10 11 10 9 8 8 7 6 5 5 5 6 6 6 6
8 8 7 5 4 3 2 1 2 3 3 5 6 7 8 6 3 2 1 2 3 4 6 9 10 8 8 9 11 11 11 12 13 13 12 10 10 10 9 9 10 11 12 12 12 11 10 9 10 11 11 10 10 8 7 7 6 5 5 6 6 6 6
8 8 7 6 5 4 2 2 3 4 5 7 8 9 9 6 3 3 2 2 2 4 5 8 9 8 8 10 10 10 10 11 12 12 12 11 10 8 7 7 8 10 12 12 12 11 10 10 11 11 11 10 9 8 7 7 6 5 5 6 6 5 4
9 9 8 7 5 4 4 3 4 6 9 10 10 10 9 5 2 2 3 3 3 4 4 6 9 8 9 11 10 10 11 10 11 12 12 11 10 9 8 7 8 10 12 12 11 11 10 10 10 10 10 9 8 7 7 8 7 5 5 5 4 3 3
10 11 9 8 6 6 5 5 6 8 11 12 12 10 8 4 1 0 1 2 3 4 4 5 8 10 10 11 10 10 10 9 11 12 12 12 11 10 10 9 9 10 12 11 10 10 10 10 8 8 8 8 8 8 8 8 6 6 6 5 3 3 3
9 11 10 9 8 7 7 8 8 10 12 12 11 8 5 3 1 0 0 2 3 4 4 4 8 10 10 8 7 8 8 7 9 11 11 12 10 9 10 10 10 9 9 9 10 11 11 10 8 7 8 9 9 9 9 8 7 7 7 6 4 4 4
9 11 11 9 9 9 9 10 11 12 12 9 6 4 3 2 1 1 1 2 3 4 4 4 7 8 8 7 6 6 6 6 7 8 9 9 9 8 9 9 9 9 8 8 9 10 10 10 9 9 9 10 10 9 8 7 7 7 9 10 9 7 6
10 12 11 10 10 10 11 12 12 11 8 5 2 2 3 3 1 1 1 3 4 4 3 2 4 6 7 7 6 4 4 5 5 6 7 8 8 8 7 8 8 8 9 11 11 11 10 9 10 11 9 8 8 7 7 8 7 7 8 9 9 8 7
12 12 11 10 10 11 12 12 10 7 4 2 1 2 3 3 2 2 2 3 4 3 2 2 4 6 6 6 5 3 3 3 4 5 5 6 6 7 7 8 8 8 9 12 13 12 11 10 11 9 6 5 6 7 8 9 8 8 7 6 7 7 7
14 12 11 10 10 10 11 10 8 5 4 3 2 2 3 4 3 2 2 3 3 3 3 4 6 6 6 5 6 5 4 4 4 5 6 5 5 7 9 10 10 10 9 10 12 12 12 12 11 8 6 6 7 5 7 9 9 10 8 6 5 5 5
16 13 11 10 9 8 7 7 6 5 5 4 3 3 3 4 3 2 2 3 3 4 4 5 6 7 7 7 7 7 6 6 6 6 6 6 5 6 9 11 12 12 11 10 11 11 12 11 10 11 10 8 6 2 4 7 8 9 8 6 4 3 3
17 14 11 10 7 6 5 4 4 4 4 3 3 3 3 3 3 2 3 3 3 3 4 5 6 7 7 7 7 7 8 8 7 7 8 8 8 8 9 10 11 12 12 12 12 11 11 11 12 12 10 7 5 2 2 4 5 4 5 5 4 4 3
17 14 12 9 7 6 4 3 3 3 3 2 2 3 3 4 3 3 3 2 2 3 3 4 5 6 6 6 7 8 8 8 8 8 8 9 10 10 9 9 10 10 11 11 11 10 9 11 13 12 9 8 9 6 4 4 4 4 4 3 3 3 3
16 14 12 9 7 6 4 3 2 2 1 1 1 2 4 4 4 3 3 3 3 3 3 4 4 4 4 5 6 6 7 7 7 7 8 9 10 10 10 10 12 12 13 13 13 12 12 12 13 11 8 9 10 9 7 6 5 6 6 5 5 4 3
16 15 13 11 9 6 4 3 2 1 1 1 1 3 5 5 5 5 5 5 5 5 5 5 5 4 4 4 4 5 6 6 6 7 8 9 11 12 13 12 12 13 14 14 14 13 13 13 12 10 8 8 9 9 8 7 7 8 8 7 7 7 6
16 15 13 11 10 7 5 4 2 2 2 3 2 3 5 6 5 6 7 7 7 7 7 6 6 5 5 6 6 5 6 7 8 9 11 11 13 14 14 14 13 13 12 10 10 10 10 10 10 9 9 9 9 9 9 9 9 9 9 8 8 8 8
14 13 11 11 10 8 6 4 3 3 3 4 4 3 6 7 6 7 7 8 8 8 8 7 7 6 7 8 8 7 7 9 10 12 12 12 13 13 13 12 12 11 10 8 7 7 8 8 9 10 10 9 10 10 10 10 11 12 11 10 9 9 9
13 12 11 10 10 8 7 4 3 3 3 4 5 5 6 7 7 7 8 8 8 8 9 8 7 7 8 9 9 9 8 9 9 10 10 10 10 9 9 9 8 7 6 5 5 5 5 6 7 8 9 9 10 11 11 12 13 14 14 12 10 11 10
16 14 12 10 9 9 7 5 3 3 3 4 5 5 6 7 8 8 8 8 8 9 9 9 9 8 8 9 9 8 9 8 8 8 7 7 6 6 5 5 4 3 3 3 5 6 6 7 9 9 9 9 10 11 11 12 14 14 14 13 12 12 12
16 15 14 11 9 8 7 5 4 4 3 3 4 5 6 7 8 9 10 10 10 9 9 10 10 9 9 9 8 8 8 8 7 7 6 6 6 6 5 4 4 4 5 5 7 9 10 11 13 14 13 11 11 12 12 13 13 13 14 14 14 14 13
13 14 14 11 8 7 6 6 5 5 4 3 3 4 5 6 7 9 10 11 11 11 10 10 10 10 11 10 10 10 9 9 9 8 8 9 9 10 9 8 8 9 9 8 9 11 13 14 15 17 17 16 15 16 16 15 15 14 15 16 16 15 14
12 13 10 8 7 6 5 5 5 4 3 3 2 3 4 5 6 7 8 10 12 12 12 12 12 12 13 13 13 13 13 13 13 12 12 13 14 14 13 12 13 13 13 12 13 15 16 16 17 17 19 20 20 20 20 20 19 18 17 17 16 15 15
10 10 9 8 7 7 6 5 5 3 2 3 3 3 3 3 4 5 7 8 9 10 11 12 13 13 14 15 16 16 17 17 17 17 17 18 19 19 18 18 18 17 17 17 18 19 20 20 20 20 21 22 22 21 22 23 24 22 19 18 16 15 15
11 9 8 8 8 7 6 6 4 3 3 3 3 3 4 4 5 7 8 8 9 9 9 10 12 14 15 17 18 18 19 19 20 20 20 22 23 23 22 22 22 22 21 21 22 24 25 25 25 24 23 23 22 21 22 24 26 25 22 19 17 16 16
12 12 10 10 10 9 7 6 5 5 4 4 4 5 5 6 7 8 9 10 11 11 10 10 12 14 15 16 18 19 20 21 22 23 24 26 27 26 24 24 25 26 25 24 24 25 26 27 27 26 25 25 24 23 23 26 27 26 24 20 18 17 16
11 11 11 11 12 11 9 7 7 6 6 6 6 6 7 7 8 9 10 11 12 12 12 12 13 14 16 17 18 19 20 22 23 25 27 29 28 27 26 26 26 26 25 25 25 25 25 25 25 25 25 25 25 24 25 26 27 26 23 21 18 17 16
11 11 10 10 10 10 9 8 8 8 8 8 7 8 9 9 10 11 11 12 13 13 13 13 14 16 17 18 20 20 20 22 24 27 28 28 28 28 28 27 26 25 26 27 27 27 27 26 25 25 25 26 26 25 24 25 26 25 23 21 20 19 18
12 12 11 11 11 10 9 9 10 11 10 10 10 10 11 11 12 13 14 15 15 15 15 15 15 16 18 20 21 22 22 23 26 28 29 29 28 28 29 29 29 28 29 29 28 28 30 30 29 26 26 28 28 26 23 23 25 25 23 23 23 21 20
12 12 12 12 12 12 11 11 12 13 13 13 13 13 14 14 15 16 18 18 19 18 18 17 17 17 18 20 22 23 24 25 28 30 31 31 30 30 30 30 30 30 30 30 29 30 32 34 31 28 26 27 27 23 21 22 25 25 24 23 21 20 19
15 15 14 14 14 13 13 13 15 16 16 16 17 17 17 18 19 20 21 22 23 22 21 20 21 20 20 20 22 23 24 26 29 32 33 33 33 33 32 31 31 31 31 30 30 30 32 33 32 28 26 26 25 24 23 24 25 24 23 21 19 19 19
18 17 17 18 18 17 17 17 17 19 19 20 22 22 23 23 23 23 24 25 26 27 25 24 25 24 23 22 23 24 25 27 29 32 35 35 34 35 35 33 31 30 30 30 30 30 32 32 31 29 27 26 26 25 24 24 24 23 22 20 19 20 20
21 21 20 21 21 21 21 21 21 22 23 25 26 27 28 28 28 28 29 30 31 32 31 29 28 27 26 25 24 25 26 28 30 32 34 35 36 37 36 33 31 30 31 31 30 31 32 31 30 29 27 25 26 25 23 23 23 22 20 19 19 20 20
25 24 24 25 25 26 26 27 27 28 28 29 30 30 31 31 32 33 33 34 35 35 34 32 29 27 26 26 26 26 27 29 31 32 33 35 36 37 36 34 34 34 33 32 32 32 32 31 30 29 26 25 25 24 22 22 21 19 19 19 19 20 21
27 27 28 28 29 30 31 32 32 33 33 34 34 35 35 35 36 36 35 36 36 35 35 33 30 27 27 26 26 27 29 30 31 32 33 35 36 37 37 37 38 38 36 34 33 32 31 30 30 27 24 23 22 21 20 21 20 19 19 19 20 21 22
28 30 31 32 33 33 34 34 35 36 37 37 38 39 39 39 38 38 37 36 36 36 35 34 32 30 29 29 30 30 31 32 33 34 35 35 36 37 38 38 39 40 39 35 33 32 30 28 26 23 21 21 21 21 21 21 20 20 20 20 21 22 23
31 33 34 34 35 36 36 36 37 38 39 40 40 41 41 41 41 40 39 38 37 37 37 36 36 35 34 34 34 35 34 34 35 36 36 35 35 36 37 40 42 42 39 35 33 31 27 23 21 20 21 23 23 23 22 22 22 22 21 22 22 23 24
35 36 36 37 37 37 37 38 38 39 40 41 41 42 42 42 42 42 42 41 41 41 41 40 40 40 40 39 38 38 37 35 35 37 36 35 35 35 38 42 41 37 33 30 28 24 22 21 21 22 23 24 24 23 23 23 23 23 23 23 23 24 25
Wind_Direction
162 167 173 168 164 181 193 31 349 341 347 347 350 355 353 345 340 96 285 277 268 254 235 227 225 218 213 216 219 217 213 217 221 218 220 218 207 206 206 206 211 214 220 224 225 224 215 209 202 191 190 195 199 208 220 224 225 226 240 255 257 259 263
176 184 181 179 183 198 215 264 294 303 327 337 339 343 344 336 308 273 283 298 276 257 239 227 219 207 210 223 227 226 219 215 217 216 217 215 211 209 208 213 216 218 222 225 227 227 218 211 207 202 202 210 214 214 219 232 244 248 254 256 254 256 258
204 206 199 202 207 215 235 278 293 304 327 337 337 336 341 338 297 273 302 327 284 261 242 222 210 193 205 225 227 229 230 220 219 224 224 222 222 218 214 216 213 215 225 230 231 229 224 216 210 211 215 216 213 213 218 228 239 250 257 252 247 246 250
225 224 218 217 223 240 256 285 307 322 330 332 331 334 339 336 279 270 316 322 296 279 259 222 208 195 207 225 228 234 243 238 232 235 234 232 230 228 226 220 213 216 225 231 230 225 226 224 219 217 214 207 205 210 223 231 225 212 212 230 231 212 225
238 237 235 232 242 260 275 298 314 324 325 322 321 324 330 326 268 264 315 299 288 282 278 238 217 213 217 225 230 235 244 245 238 237 237 236 234 230 231 229 223 219 218 219 214 208 214 216 211 210 201 199 208 217 228 230 214 180 171 195 205 178 186
243 246 248 247 258 276 291 306 316 317 315 312 311 311 313 300 261 23 250 252 259 264 272 241 219 224 224 225 233 239 240 233 226 226 229 233 232 225 223 220 212 203 201 202 195 193 197 192 189 199 202 205 212 217 219 208 182 159 154 162 166 153 151
243 248 254 260 271 284 296 307 315 314 310 307 302 293 279 264 265 332 235 220 224 243 262 238 217 225 223 214 223 236 236 225 215 215 219 219 213 207 202 193 184 179 177 173 172 183 189 186 188 196 199 202 203 204 201 184 164 154 148 146 144 135 131
239 245 256 268 277 288 300 312 316 311 307 310 306 261 258 261 261 271 226 217 224 236 251 223 205 217 215 206 207 222 238 233 219 211 208 204 200 200 196 180 168 169 166 156 158 173 183 187 192 195 199 200 201 200 181 157 145 140 134 134 134 126 119
233 242 258 272 282 295 307 316 319 310 302 309 301 253 258 267 266 261 230 218 226 227 214 178 177 198 209 201 191 195 227 232 222 213 210 208 201 196 195 187 179 182 179 169 168 175 182 191 195 199 219 228 219 206 172 147 130 120 116 118 120 117 116
230 242 260 272 286 300 311 320 319 304 289 281 275 260 258 262 257 251 236 220 219 207 188 173 172 184 191 187 182 182 192 203 208 212 215 217 210 199 192 187 187 192 191 186 187 187 190 199 196 188 202 229 234 208 160 141 131 129 130 127 122 126 137
229 239 253 264 281 296 308 318 318 306 291 270 260 255 248 244 238 230 220 213 209 202 188 173 173 181 180 181 185 184 186 192 192 193 194 191 190 190 184 180 183 186 185 184 189 191 189 191 188 184 193 220 241 210 135 137 137 140 147 147 148 171 176
229 235 242 251 266 278 289 302 315 322 312 279 253 243 226 215 218 216 205 201 199 195 184 169 173 184 184 182 181 180 187 193 189 181 175 170 169 172 176 178 180 182 180 176 180 186 187 187 190 194 199 214 227 224 158 157 160 167 171 166 173 192 197
224 228 234 241 250 258 269 270 284 318 326 305 252 231 208 187 192 200 185 178 176 170 165 161 171 185 187 182 178 179 187 191 189 183 174 170 170 171 176 178 174 172 170 168 169 173 181 192 202 207 207 203 206 216 224 205 206 227 224 213 216 204 193
217 222 232 237 234 241 254 243 245 288 301 287 232 216 195 179 176 171 157 147 144 142 135 131 141 161 172 176 180 180 184 188 187 182 176 171 167 163 165 170 170 165 158 155 155 156 161 177 194 205 207 200 198 206 221 225 229 249 262 264 268 274 276
216 224 231 225 216 221 221 200 195 213 183 154 171 192 186 177 163 151 145 137 133 127 117 112 117 132 143 144 151 161 170 173 165 159 157 155 151 149 150 156 160 159 156 156 159 166 169 171 180 194 200 201 203 213 233 247 253 265 271 268 273 287 293
220 229 228 212 203 204 196 178 157 137 135 136 146 173 178 171 156 148 144 137 135 128 121 123 127 131 128 120 122 134 142 138 135 139 139 138 140 142 144 145 147 147 149 156 163 172 177 173 175 191 202 211 219 228 243 255 262 268 269 268 276 286 290
222 224 217 201 191 188 183 173 146 124 123 135 142 158 174 171 156 151 149 145 143 136 133 136 135 133 131 126 126 127 129 132 136 139 139 138 140 142 143 143 144 147 152 165 177 181 186 187 184 189 200 217 233 241 248 256 262 264 265 266 271 276 281
212 206 201 192 185 185 186 182 164 138 132 145 150 160 176 176 168 163 161 157 155 151 149 146 142 141 139 137 140 142 144 148 148 146 147 147 149 149 149 150 151 159 171 193 215 219 223 228 217 205 209 226 247 257 261 263 266 267 268 266 264 269 275
199 192 191 189 186 186 188 192 192 178 164 160 160 162 172 181 185 184 178 174 174 172 166 159 155 156 153 154 162 165 166 170 168 165 165 168 170 172 172 172 170 188 223 255 265 267 273 275 268 257 248 244 252 262 267 273 277 277 277 279 281 285 288
194 182 184 188 190 191 194 204 214 207 196 183 170 168 172 182 192 198 197 193 192 191 185 176 171 173 173 176 187 193 193 198 198 193 197 203 210 214 214 219 230 243 256 270 278 283 288 289 286 284 277 265 261 267 269 271 273 274 277 283 286 286 285
191 190 187 182 183 193 203 213 219 214 207 199 185 182 185 190 196 204 207 206 206 205 201 195 190 193 194 194 202 211 218 226 230 231 233 234 236 240 239 238 243 249 258 267 273 279 284 286 288 289 288 283 278 279 278 271 264 261 265 272 276 277 277
195 199 182 166 179 193 202 216 222 216 199 191 203 206 206 213 215 215 218 218 217 216 213 212 210 210 212 211 214 219 226 234 239 242 246 248 250 252 253 253 253 257 265 271 274 276 280 284 286 287 286 285 282 282 283 280 273 267 263 264 267 269 272
200 200 175 171 191 197 200 216 228 236 220 205 219 232 241 254 250 247 248 244 241 236 230 227 227 226 227 227 227 229 232 236 241 243 247 250 252 253 256 258 260 263 267 271 275 278 279 281 283 284 284 284 281 280 280 280 279 275 268 263 261 262 268
196 200 195 195 206 208 208 220 235 250 249 242 245 250 260 270 272 271 271 269 266 261 251 244 242 242 242 240 239 240 241 242 245 247 249 251 252 252 254 257 261 265 269 273 276 279 281 280 279 280 280 280 277 277 280 281 279 274 267 258 253 257 266
192 193 200 207 213 214 210 218 234 243 251 260 265 263 267 275 276 272 269 267 267 266 263 256 250 250 253 251 247 247 248 249 249 251 252 252 253 255 259 262 264 264 267 270 273 276 279 278 277 277 277 276 274 275 280 283 278 268 258 249 247 254 265
189 188 196 204 209 212 210 215 228 235 244 255 264 269 272 277 279 278 275 272 270 270 272 270 265 263 263 261 257 254 254 252 252 253 255 257 259 262 265 267 267 267 269 271 273 275 275 274 276 277 277 275 273 274 279 279 270 257 248 244 246 254 264
205 200 202 207 214 220 221 225 232 236 240 247 254 261 268 276 282 284 284 281 278 278 278 275 274 274 272 269 265 262 260 257 257 259 261 262 263 264 266 267 266 267 271 272 274 275 274 272 272 273 274 274 273 275 279 272 257 245 241 244 249 256 264
233 229 225 225 230 233 232 234 236 237 242 248 252 257 264 272 278 280 282 283 282 282 281 277 275 275 274 271 269 267 266 266 266 268 269 268 266 266 268 269 268 268 270 271 272 272 271 270 269 269 270 272 272 274 273 259 245 241 244 249 255 260 265
233 237 238 239 243 246 245 246 247 247 249 254 257 260 263 266 270 274 277 280 281 281 279 276 273 270 268 268 267 267 267 268 270 273 272 271 270 268 267 267 268 268 268 268 270 269 267 266 267 269 268 268 270 269 259 245 240 243 247 251 257 263 267
227 234 239 242 245 248 248 250 254 257 259 260 262 263 265 266 268 270 273 277 279 278 276 274 272 270 266 264 264 264 265 266 268 270 271 270 269 268 267 265 264 263 264 265 267 266 264 263 265 266 264 263 263 254 242 237 239 241 244 248 255 262 268
237 238 241 242 243 243 244 246 250 255 260 264 265 267 269 270 271 272 274 276 277 276 275 273 273 272 270 266 262 261 261 261 262 265 267 269 270 270 268 265 261 259 261 262 262 260 261 262 262 260 260 262 255 238 226 228 233 236 242 248 255 262 267
248 246 245 246 247 248 248 248 251 255 260 265 268 271 272 273 274 274 275 275 274 274 274 273 272 272 271 268 264 261 259 258 258 260 264 267 268 268 267 266 263 261 261 260 257 256 258 261 259 256 258 259 246 225 215 223 231 237 245 250 255 262 268
255 253 250 250 251 254 256 256 258 260 263 267 271 273 275 276 276 275 274 273 272 271 271 270 268 267 267 267 266 265 263 261 261 262 263 265 266 267 268 269 268 265 262 258 254 254 257 257 253 250 250 248 236 220 217 227 234 239 245 250 257 265 271
261 260 259 258 258 260 262 263 265 267 269 271 273 273 274 273 273 272 272 272 272 271 270 268 266 264 264 266 267 268 268 267 267 266 264 263 264 266 266 267 266 265 263 259 255 256 258 254 246 240 235 232 226 219 219 226 231 237 245 254 263 269 274
269 269 270 269 269 269 269 268 269 270 270 271 271 271 270 270 269 268 267 267 267 268 269 268 266 265 265 268 271 272 273 272 269 267 266 266 266 265 264 263 263 262 260 256 255 255 251 243 234 227 220 217 215 214 218 225 233 242 251 259 266 272 277
274 274 274 274 274 274 273 271 270 269 269 269 268 268 268 268 267 266 265 263 264 265 266 267 267 266 267 269 271 274 276 275 270 267 267 269 268 266 263 261 258 256 253 252 250 245 234 220 213 210 208 210 211 214 220 228 238 245 253 261 268 274 278
273 272 273 273 272 272 271 270 268 267 267 267 267 267 266 265 264 263 262 261 260 261 264 265 266 266 267 267 268 272 275 275 271 268 267 268 267 266 265 262 257 252 249 247 240 226 210 202 203 205 207 212 216 221 227 233 240 248 256 265 271 276 279
Height
3146 3145 3145 3146 3146 3146 3146 3147 3147 3147 3148 3148 3149 3149 3149 3149 3149 3149 3149 3148 3147 3147 3147 3147 3147 3147 3148 3149 3151 3152 3153 3153 3154 3155 3154 3155 3156 3157 3157 3157 3157 3157 3158 3158 3158 3160 3162 3163 3165 3166 3166 3166 3167 3167 3168 3168 3169 3170 3170 3170 3169 3169 3169
3145 3145 3145 3146 3146 3146 3146 3146 3147 3147 3148 3148 3148 3148 3148 3147 3148 3148 3148 3148 3147 3146 3146 3146 3146 3147 3148 3149 3150 3151 3153 3153 3153 3154 3154 3154 3155 3156 3157 3157 3157 3157 3158 3158 3158 3159 3161 3162 3164 3165 3166 3166 3167 3167 3168 3168 3169 3169 3169 3169 3169 3168 3168
3146 3145 3145 3145 3145 3145 3145 3145 3146 3146 3146 3146 3146 3146 3146 3146 3146 3145 3146 3146 3146 3146 3145 3145 3146 3147 3147 3148 3149 3150 3152 3153 3153 3153 3153 3153 3154 3155 3156 3156 3157 3157 3157 3158 3158 3159 3160 3161 3162 3163 3164 3165 3166 3166 3167 3169 3169 3169 3169 3168 3168 3168 3167
3146 3145 3145 3145 3145 3144 3144 3144 3144 3144 3144 3144 3144 3144 3144 3144 3144 3144 3144 3144 3145 3145 3145 3145 3145 3146 3147 3147 3148 3149 3150 3152 3153 3152 3152 3153 3154 3155 3155 3156 3157 3157 3157 3157 3158 3159 3160 3160 3161 3162 3163 3164 3165 3165 3167 3168 3169 3170 3169 3167 3167 3167 3167
3145 3145 3145 3145 3144 3144 3143 3143 3143 3143 3143 3142 3142 3143 3143 3143 3144 3144 3143 3143 3143 3144 3144 3144 3145 3146 3146 3147 3148 3149 3149 3151 3152 3152 3152 3153 3153 3154 3154 3155 3156 3156 3157 3157 3158 3159 3159 3160 3161 3161 3162 3162 3164 3165 3166 3167 3168 3168 3168 3166 3166 3166 3166
3145 3145 3144 3144 3144 3144 3143 3143 3143 3143 3142 3141 3141 3141 3142 3142 3143 3143 3143 3142 3142 3143 3143 3144 3145 3145 3146 3147 3148 3148 3149 3150 3151 3151 3152 3152 3153 3153 3154 3155 3155 3155 3156 3156 3157 3158 3159 3160 3161 3161 3161 3162 3163 3165 3165 3166 3166 3167 3166 3166 3165 3165 3165
3144 3144 3144 3144 3144 3143 3143 3143 3143 3142 3141 3140 3140 3140 3141 3141 3142 3142 3142 3142 3142 3142 3142 3143 3145 3145 3146 3147 3148 3148 3148 3149 3150 3151 3151 3152 3152 3153 3153 3154 3154 3155 3155 3156 3156 3157 3158 3160 3161 3160 3161 3162 3163 3164 3164 3164 3165 3165 3165 3165 3164 3164 3164
3142 3142 3143 3143 3143 3143 3142 3142 3142 3141 3140 3139 3139 3139 3140 3140 3141 3142 3142 3141 3141 3141 3142 3143 3144 3145 3146 3147 3148 3148 3148 3149 3149 3150 3151 3151 3152 3153 3153 3153 3154 3155 3155 3156 3156 3157 3158 3160 3160 3160 3160 3160 3161 3163 3163 3163 3163 3163 3164 3164 3164 3164 3164
3141 3141 3141 3142 3142 3142 3142 3142 3141 3140 3139 3139 3139 3139 3139 3140 3140 3141 3141 3141 3141 3141 3142 3142 3144 3145 3146 3147 3148 3148 3148 3148 3148 3149 3150 3150 3151 3152 3153 3154 3154 3155 3156 3156 3156 3157 3157 3158 3159 3159 3159 3159 3161 3162 3162 3162 3162 3163 3163 3164 3164 3164 3164
3139 3140 3140 3141 3141 3141 3141 3141 3141 3140 3139 3139 3138 3138 3139 3139 3140 3140 3140 3141 3141 3141 3141 3142 3143 3144 3145 3147 3148 3148 3148 3148 3148 3148 3149 3150 3151 3152 3153 3154 3155 3155 3156 3156 3156 3156 3157 3158 3158 3158 3159 3159 3160 3161 3161 3161 3162 3163 3163 3163 3164 3164 3164
3138 3138 3139 3140 3140 3140 3140 3140 3140 3140 3139 3139 3138 3138 3138 3138 3139 3139 3140 3140 3140 3141 3141 3142 3143 3144 3145 3146 3148 3148 3148 3148 3148 3148 3148 3149 3150 3151 3152 3154 3154 3155 3155 3156 3156 3156 3157 3157 3158 3158 3159 3159 3160 3160 3161 3161 3162 3163 3163 3163 3163 3164 3164
3136 3137 3138 3138 3139 3139 3139 3140 3140 3140 3139 3138 3138 3137 3137 3138 3138 3139 3139 3140 3140 3141 3141 3142 3143 3144 3145 3146 3147 3148 3148 3148 3148 3148 3148 3149 3149 3150 3151 3152 3153 3154 3155 3156 3156 3156 3157 3157 3158 3158 3159 3160 3160 3160 3161 3162 3162 3163 3163 3163 3163 3164 3164
3135 3136 3136 3137 3138 3138 3138 3139 3139 3139 3139 3138 3138 3137 3137 3137 3137 3138 3139 3139 3140 3141 3141 3142 3142 3143 3144 3145 3146 3147 3148 3148 3148 3148 3148 3148 3148 3149 3150 3151 3152 3153 3154 3156 3156 3157 3158 3158 3158 3159 3160 3161 3161 3161 3162 3162 3162 3162 3162 3162 3163 3163 3164
3132 3134 3135 3136 3136 3136 3137 3138 3138 3138 3138 3138 3138 3137 3137 3137 3137 3138 3139 3139 3140 3141 3141 3142 3142 3143 3144 3145 3146 3147 3148 3148 3148 3147 3147 3147 3148 3148 3149 3150 3151 3152 3154 3155 3156 3157 3158 3158 3158 3159 3160 3161 3162 3162 3163 3163 3162 3162 3162 3162 3162 3162 3163
3131 3132 3133 3134 3135 3135 3136 3137 3137 3137 3137 3137 3137 3137 3137 3137 3137 3138 3138 3139 3140 3141 3141 3142 3142 3143 3144 3145 3146 3147 3148 3148 3148 3148 3148 3148 3148 3148 3149 3151 3152 3153 3153 3154 3156 3156 3157 3157 3158 3159 3160 3162 3162 3163 3163 3163 3162 3162 3162 3162 3162 3162 3162
3130 3131 3132 3132 3133 3134 3135 3136 3136 3136 3136 3136 3136 3136 3136 3137 3137 3137 3138 3139 3140 3141 3141 3142 3142 3143 3144 3145 3147 3147 3148 3148 3149 3149 3149 3149 3149 3149 3150 3151 3152 3153 3154 3155 3155 3156 3157 3158 3159 3160 3160 3161 3161 3162 3162 3162 3162 3162 3162 3162 3162 3161 3161
3130 3131 3131 3132 3132 3133 3134 3135 3135 3135 3135 3135 3135 3136 3136 3136 3137 3137 3138 3139 3140 3140 3141 3142 3142 3143 3145 3146 3147 3148 3149 3149 3150 3150 3150 3150 3150 3150 3151 3152 3153 3153 3154 3154 3155 3156 3157 3158 3160 3160 3160 3160 3160 3161 3161 3161 3161 3160 3160 3161 3161 3160 3159
3129 3129 3130 3131 3131 3132 3132 3133 3133 3133 3134 3134 3135 3135 3135 3136 3136 3137 3138 3139 3139 3140 3141 3142 3143 3144 3145 3146 3147 3148 3149 3150 3150 3150 3150 3150 3150 3151 3152 3153 3153 3154 3154 3155 3155 3156 3157 3158 3159 3160 3160 3160 3159 3159 3159 3159 3159 3158 3158 3158 3159 3158 3158
3124 3127 3129 3130 3130 3131 3131 3131 3132 3132 3133 3133 3134 3135 3135 3135 3136 3137 3137 3138 3139 3140 3140 3141 3142 3144 3145 3146 3147 3148 3149 3149 3150 3150 3150 3150 3150 3151 3152 3153 3154 3154 3155 3155 3155 3155 3156 3157 3157 3158 3158 3159 3158 3157 3157 3156 3156 3156 3155 3155 3155 3155 3154
3124 3126 3127 3127 3128 3129 3129 3130 3130 3131 3132 3133 3133 3134 3134 3135 3135 3136 3137 3137 3138 3139 3140 3141 3142 3143 3144 3146 3147 3147 3148 3149 3149 3149 3149 3149 3150 3150 3151 3152 3153 3153 3154 3154 3154 3154 3155 3155 3155 3155 3156 3158 3158 3156 3156 3155 3155 3154 3153 3152 3152 3152 3152
3125 3125 3123 3124 3126 3128 3128 3129 3130 3130 3131 3132 3133 3133 3133 3133 3134 3134 3135 3136 3137 3138 3139 3141 3142 3142 3144 3145 3146 3147 3148 3148 3148 3148 3148 3148 3148 3149 3150 3151 3151 3151 3152 3153 3153 3153 3153 3153 3153 3153 3153 3155 3156 3155 3154 3154 3153 3153 3152 3151 3150 3150 3150
3124 3123 3122 3123 3126 3127 3128 3128 3129 3129 3130 3131 3131 3132 3132 3132 3132 3133 3134 3135 3136 3137 3138 3139 3141 3141 3142 3143 3144 3145 3146 3146 3146 3146 3146 3146 3146 3147 3148 3149 3149 3149 3150 3151 3151 3151 3151 3151 3151 3151 3151 3151 3152 3152 3151 3150 3151 3151 3150 3149 3148 3148 3147
3121 3121 3121 3123 3125 3126 3126 3127 3127 3128 3129 3130 3130 3130 3130 3131 3131 3132 3132 3133 3134 3136 3137 3138 3139 3140 3140 3141 3142 3143 3144 3144 3144 3144 3144 3144 3144 3144 3145 3146 3146 3147 3148 3148 3148 3148 3149 3149 3149 3149 3149 3148 3148 3149 3149 3148 3147 3148 3148 3147 3146 3146 3145
3120 3121 3121 3123 3124 3124 3124 3125 3126 3127 3127 3128 3128 3129 3129 3129 3130 3130 3131 3132 3133 3134 3136 3137 3137 3138 3138 3139 3140 3140 3141 3141 3141 3141 3141 3140 3140 3140 3141 3142 3143 3143 3144 3145 3145 3145 3145 3146 3146 3146 3146 3146 3146 3146 3146 3145 3145 3145 3145 3144 3143 3143 3142
3120 3121 3122 3122 3122 3123 3123 3124 3125 3126 3125 3126 3126 3127 3127 3128 3128 3129 3129 3130 3131 3132 3133 3134 3135 3135 3136 3136 3137 3138 3138 3138 3138 3138 3137 3135 3135 3136 3137 3138 3138 3139 3140 3141 3142 3142 3142 3142 3142 3142 3142 3142 3143 3143 3143 3142 3141 3142 3142 3141 3141 3140 3140
3118 3119 3120 3120 3122 3123 3123 3123 3123 3124 3123 3123 3124 3124 3125 3126 3126 3127 3128 3128 3129 3129 3130 3131 3132 3132 3133 3133 3133 3134 3134 3135 3135 3133 3132 3131 3132 3133 3134 3134 3135 3135 3136 3136 3137 3138 3138 3138 3138 3138 3138 3139 3139 3139 3139 3138 3138 3138 3138 3139 3139 3138 3138
3114 3115 3116 3118 3119 3120 3121 3121 3121 3121 3121 3121 3121 3122 3122 3123 3124 3125 3125 3126 3126 3127 3128 3128 3129 3129 3129 3129 3129 3129 3129 3130 3129 3128 3128 3128 3129 3129 3130 3130 3131 3131 3131 3132 3132 3133 3133 3134 3134 3134 3135 3135 3135 3135 3135 3135 3134 3135 3135 3136 3136 3135 3135
3113 3113 3114 3114 3115 3116 3117 3117 3118 3118 3119 3119 3119 3120 3120 3121 3121 3122 3122 3123 3123 3124 3125 3126 3126 3126 3126 3125 3125 3125 3125 3124 3123 3123 3124 3124 3125 3125 3126 3125 3126 3127 3127 3127 3128 3129 3129 3129 3129 3130 3131 3131 3131 3131 3131 3131 3131 3132 3132 3132 3132 3132 3131
3111 3111 3112 3112 3113 3113 3114 3115 3115 3116 3116 3117 3117 3117 3118 3118 3119 3119 3119 3120 3121 3121 3122 3123 3123 3123 3123 3122 3121 3121 3121 3120 3119 3118 3118 3120 3121 3121 3121 3121 3122 3123 3123 3123 3124 3124 3124 3124 3125 3125 3126 3126 3127 3127 3128 3128 3128 3129 3129 3128 3128 3128 3128
3108 3109 3109 3110 3110 3111 3111 3112 3112 3113 3113 3114 3115 3115 3116 3116 3116 3116 3116 3117 3117 3118 3119 3119 3119 3119 3119 3119 3118 3118 3117 3117 3115 3114 3113 3114 3116 3116 3116 3117 3118 3118 3119 3120 3120 3119 3119 3119 3120 3120 3121 3121 3122 3123 3123 3124 3125 3125 3125 3125 3125 3124 3124
3106 3107 3107 3108 3108 3108 3108 3109 3109 3109 3109 3110 3111 3111 3112 3112 3112 3112 3112 3112 3112 3113 3114 3114 3114 3114 3114 3114 3114 3114 3114 3113 3112 3110 3109 3109 3110 3111 3111 3112 3113 3113 3114 3115 3115 3115 3114 3114 3115 3115 3116 3117 3117 3118 3119 3120 3121 3121 3122 3122 3121 3121 3121
3104 3105 3105 3106 3106 3106 3106 3106 3106 3106 3106 3106 3106 3106 3106 3107 3107 3107 3107 3107 3107 3107 3108 3109 3109 3109 3109 3109 3109 3109 3109 3108 3107 3107 3105 3105 3105 3105 3106 3107 3108 3108 3109 3110 3110 3110 3109 3110 3110 3111 3111 3113 3113 3114 3116 3117 3117 3118 3118 3118 3118 3118 3117
3101 3102 3102 3103 3103 3103 3103 3103 3103 3103 3102 3102 3102 3102 3101 3101 3101 3101 3101 3101 3101 3101 3102 3103 3104 3104 3104 3104 3104 3103 3103 3102 3102 3102 3102 3101 3100 3100 3101 3102 3102 3103 3104 3104 3104 3104 3105 3105 3105 3106 3107 3108 3109 3111 3112 3114 3114 3115 3115 3115 3115 3115 3114
3097 3097 3098 3099 3099 3099 3099 3099 3099 3099 3098 3098 3097 3097 3096 3096 3095 3095 3095 3095 3095 3095 3095 3096 3097 3098 3098 3098 3098 3098 3097 3097 3097 3097 3097 3096 3096 3096 3096 3097 3097 3097 3097 3098 3099 3099 3099 3100 3100 3102 3103 3104 3106 3108 3110 3110 3111 3112 3112 3112 3112 3111 3111
3092 3092 3093 3093 3093 3094 3094 3094 3093 3093 3092 3092 3091 3091 3090 3090 3090 3090 3090 3090 3089 3088 3089 3090 3091 3092 3092 3092 3093 3092 3092 3093 3092 3092 3091 3091 3091 3091 3091 3091 3091 3091 3091 3092 3093 3094 3094 3094 3096 3097 3099 3102 3104 3106 3106 3107 3108 3108 3108 3108 3108 3108 3107
3087 3087 3087 3087 3087 3087 3087 3087 3087 3086 3085 3085 3085 3084 3084 3084 3084 3084 3084 3084 3083 3083 3082 3083 3084 3085 3086 3086 3086 3086 3087 3087 3086 3085 3085 3085 3085 3086 3086 3085 3084 3084 3085 3086 3087 3088 3089 3090 3092 3094 3096 3099 3101 3102 3103 3104 3105 3105 3105 3105 3105 3104 3103
3082 3081 3081 3081 3080 3080 3080 3080 3080 3079 3078 3078 3077 3077 3077 3077 3077 3077 3077 3077 3077 3076 3076 3076 3077 3078 3079 3080 3081 3081 3081 3080 3079 3079 3079 3080 3080 3081 3081 3080 3079 3080 3081 3082 3083 3084 3086 3087 3089 3091 3094 3096 3097 3099 3100 3100 3101 3101 3101 3101 3101 3100 3099